Simultaneous Nadir Overpasses (SNOs) Predictions

Prediction of SNOs between AQUA and GOES-15 Satellite Orbit:

Table of predicted SNOs for the next 14.0 days since TLE Epoch: 4/18/2025
Index Date Time (AQUA) AQUA Lat,Lon GOES-15 Lat,Lon Distance(km) Time Diff (sec)
1 04/18/2025 22:19:30 -0.59, 64.31 0.07, 61.37 335.44 80
2 04/19/2025 10:38:52 -0.46, 59.64 -0.06, 61.40 200.84 80
3 04/21/2025 10:18:52 0.63, 64.53 -0.07, 61.43 353.95 80
4 04/21/2025 22:38:06 0.37, 59.88 0.05, 61.41 173.41 80
5 04/23/2025 22:18:04 -0.67, 64.79 0.06, 61.44 381.75 80
6 04/24/2025 10:37:26 -0.35, 60.11 -0.05, 61.47 154.15 80
7 04/26/2025 10:17:23 0.70, 65.02 -0.06, 61.50 400.78 80
8 04/26/2025 22:36:37 0.26, 60.37 0.04, 61.49 126.95 80
9 04/28/2025 22:16:33 -0.79, 65.28 0.04, 61.53 427.67 80
10 04/29/2025 10:35:53 -0.25, 60.61 -0.03, 61.56 108.16 80
11 05/01/2025 10:15:48 0.81, 65.53 -0.03, 61.61 446.06 80
12 05/01/2025 22:35:01 0.18, 60.88 0.02, 61.60 82.14 80
